Regional Weather Roundup
Issued by NWS

Home | Current Version | Previous Version | Graphics & Text | Print | Product List | Glossary On
Versions: 1 2 3 4 5 6 7 8 9 10 11 12 13 14 15 16 17 18 19 20 21 22 23 24 25 26 27 28 29 30 31 32 33 34 35 36 37 38 39 40 41 42 43 44 45 46 47 48 49 50
000
ASUS43 KLMK 291610
RWRKY
KENTUCKY REGIONAL WEATHER ROUNDUP
NATIONAL WEATHER SERVICE LOUISVILLE KY
1200 PM EDT FRI JUL 29 2016

NOTE "FAIR" INDICATES FEW OR NO CLOUDS BELOW 12,000 FEET
WITH NO SIGNIFICANT WEATHER AND/OR OBSTRUCTIONS TO VISIBILITY.

KYZ001>023-026-027-061>063-070>075-291700-
WESTERN AND SOUTH CENTRAL KENTUCKY

CITY           SKY/WX    TMP DP  RH WIND       PRES   REMARKS
PADUCAH        CLOUDY    80  72  76 SW8       29.95F
HENDERSON      CLOUDY    81  72  74 S6        29.94F
OWENSBORO      PTSUNNY   77  75  94 S5        29.97S
HOPKINSVILLE   PTSUNNY   77  73  87 W5        29.98R
BOWLING GREEN  LGT RAIN  73  70  90 S7        29.99S
GLASGOW        CLOUDY    73  73 100 SW5       29.99S THUNDER
$$

KYZ024-025-028>034-038-045-046-053-291700-
NORTH CENTRAL KENTUCKY

CITY           SKY/WX    TMP DP  RH WIND       PRES   REMARKS
LOUISVILLE/SDF PTSUNNY   83  68  60 SW9       29.95S
LOUISVILLE/LOU MOSUNNY   83  69  62 VRB6      29.96S
FORT KNOX      CLOUDY    83  73  71 W7        29.95S
$$

KYZ035>037-039>044-047>052-055>060-089>105-291700-
NORTHEAST KENTUCKY

CITY           SKY/WX    TMP DP  RH WIND       PRES   REMARKS
LEXINGTON      PTSUNNY   81  71  71 W7        29.98S
COVINGTON      PTSUNNY   80  72  76 S8        29.97R
FRANKFORT      PTSUNNY   81  70  69 W3        29.96F
$$

KYZ054-064>069-076>088-106>120-291700-
SOUTHEAST KENTUCKY

CITY           SKY/WX    TMP DP  RH WIND       PRES   REMARKS
JACKSON        CLOUDY    77  71  82 VRB3      30.01S
LONDON         CLOUDY    79  70  74 SW6       30.01S
SOMERSET       CLOUDY    79  70  73 W8        30.01S
MIDDLESBORO    PTSUNNY   77  72  83 S6        30.02F
MONTICELLO     CLOUDY   N/A N/A N/A W15       30.02S
$$





USA.gov is the U.S. government's official web portal to all federal, state and local government web resources and services.